Tracking 25686 objects as of 25-May-2022
HD Live streaming from Space Station
objects crossing your sky now

YARILO-2

Track YARILO-2 now!
10-day predictions
YARILO-2 is classified as:


NORAD ID: 46491
Int'l Code: 2020-068F
Perigee: 543.0 km
Apogee: 569.8 km
Inclination: 97.7 °
Period: 95.6 minutes
Semi major axis: 6927 km
RCS: Unknown
Launch date: September 28, 2020
Source: (UNK)
Launch site: PLESETSK MISSILE AND SPACE COMPLEX (PKMTR)

Uplink (MHz):
Downlink (MHz): 435.550
Beacon (MHz):
Mode:
Call sign:
Status: Active

aabbcc
Your satellite tracking list
Your tracking list is empty




NASA's NSSDC Master Catalog

Two Line Element Set (TLE):
1 46491U 20068F   22144.79856356  .00008367  00000-0  57977-3 0  9994
2 46491  97.7231  86.5672 0019364   5.5624 354.5806 15.05741204 90687
Source of the keplerian elements: AFSPC